Temp_Advection
nan nan nan nan nan nan nan nan nan nan nan nan nan nan nan nan nan nan nan nan nan nan nan nan nan nan nan nan nan nan nan nan nan nan nan nan nan nan nan nan nan nan nan nan nan nan nan nan nan
nan 0 0 -0 -0 0 -0 -0 -0 -0 -0 0 0 -0 -0 -0 -0 0 0 -0 -0 -0 -0 -0 -0 -0 0 0 1 1 0 0 0 0 0 0 0 0 0 0 0 0 0 -0 -0 -0 -0 -1 nan
nan -0 -0 -0 0 -0 -0 -0 0 0 0 0 0 0 -0 -0 0 0 0 0 0 0 0 0 0 -0 -0 0 0 1 0 0 0 0 0 0 0 0 -0 -0 -0 0 0 0 0 0 0 -0 nan
nan 0 -0 -0 -0 -0 -0 -0 -0 0 0 0 0 -0 0 0 0 0 0 0 0 0 0 0 0 -0 -0 -0 -0 0 1 0 0 0 0 0 0 -0 -1 -0 -0 0 0 0 0 0 0 0 nan
nan -0 -0 -0 -0 -0 -0 -0 0 0 0 0 0 0 0 0 0 0 0 0 0 0 0 0 0 0 -0 -0 -0 -0 -0 0 0 0 -0 -0 -1 -1 -0 -0 -0 0 0 0 0 0 0 -0 nan
nan -0 -0 -0 -0 -0 -0 -0 0 0 0 0 0 0 0 0 0 0 0 0 0 0 0 0 0 0 0 -0 0 -0 -0 0 0 -0 -0 -1 -1 -0 -0 0 0 0 0 0 0 0 0 0 nan
nan 0 -0 -0 -0 -0 -0 0 -0 -0 0 -0 -0 0 0 0 -0 0 0 0 0 0 0 0 0 0 0 0 0 -0 -0 0 0 -0 -0 -0 -0 -0 -0 0 0 0 0 0 0 0 0 0 nan
nan -0 0 -0 -0 -0 -0 0 -0 -0 -0 -0 0 -0 -0 -0 -0 -0 -0 -0 0 0 0 0 0 0 1 0 0 -0 0 0 0 0 -0 -0 -0 -0 0 0 0 1 0 0 0 1 0 0 nan
nan -0 -0 -0 0 -0 0 0 0 0 0 0 0 -0 -0 -0 0 0 0 0 0 0 0 0 0 0 0 0 0 0 0 0 0 0 -0 -0 -0 0 0 0 0 -0 -0 0 1 1 1 0 nan
nan -0 -0 -0 -0 -0 0 0 0 0 0 -0 -0 -0 0 0 0 0 0 0 -0 -0 0 0 0 0 0 0 0 0 0 0 0 0 -0 -0 -0 0 0 0 0 -0 0 0 1 1 1 0 nan
nan -0 -0 -1 -1 0 0 0 0 0 -0 -1 -1 -1 0 1 0 0 0 0 -0 0 0 0 0 0 0 0 0 0 0 0 0 0 -0 -0 -0 0 0 0 0 -0 0 0 0 0 0 0 nan
nan -0 -0 -0 0 0 0 0 0 -0 -1 -0 -0 0 0 0 -0 -0 -0 0 0 0 0 0 0 0 0 0 0 0 0 0 0 0 -0 -0 -0 -0 0 0 -0 0 -0 0 -0 -0 0 0 nan
nan -0 -0 -0 0 0 0 1 -0 -1 -2 0 -0 0 -0 0 -0 -0 -0 0 0 0 0 0 0 0 0 0 0 1 0 0 1 0 0 -0 -0 -0 0 0 0 0 0 0 1 0 -0 0 nan
nan 0 -0 -0 0 0 0 0 0 -2 -1 0 -0 -0 -0 -0 -0 0 0 -0 -0 0 0 0 0 0 0 0 1 0 0 0 -0 1 0 0 -0 -0 0 0 1 1 0 0 1 0 0 0 nan
nan 0 -0 -0 0 -0 0 0 -1 -3 1 -0 -1 -1 -0 -0 0 -0 -0 0 0 0 0 0 0 0 0 0 0 0 0 0 0 0 1 1 -0 0 1 0 1 1 1 0 0 0 0 0 nan
nan 0 -0 -0 0 -0 0 -0 -1 -0 1 -1 -1 -0 -0 -0 -0 0 0 0 0 0 0 0 0 0 0 0 0 0 1 0 1 1 1 1 0 0 1 1 1 1 1 1 -0 0 0 0 nan
nan 0 0 -1 -0 0 0 -0 -0 -0 0 -0 -1 -0 -0 -0 -0 -0 -0 0 0 0 0 0 0 0 0 1 1 1 1 1 1 0 1 0 0 0 1 1 1 1 1 1 -0 0 0 0 nan
nan 0 -0 -0 0 0 0 0 -1 -2 0 -1 -1 -0 -0 -1 -1 0 1 0 -0 1 0 0 0 1 1 1 2 1 1 1 1 -0 -0 1 1 1 1 1 1 1 0 0 -0 0 0 0 nan
nan -0 -0 -0 -0 -0 -0 -0 -0 -0 0 -0 -1 -1 -2 -2 -1 -0 0 1 0 0 0 0 0 1 1 2 1 1 0 1 1 -1 -0 2 1 2 1 0 1 1 0 0 -0 -0 0 0 nan
nan 0 -0 -0 -0 0 -0 -0 -0 -0 -1 -1 -1 -1 -1 -1 -1 -0 0 0 0 0 0 0 0 1 1 1 1 0 1 2 1 0 0 2 1 1 -0 0 1 0 0 0 0 0 0 -0 nan
nan 0 -0 -0 -0 0 -0 -1 0 -0 -1 -1 -1 -1 -0 -0 -0 0 0 0 0 0 -0 0 1 2 2 1 1 1 2 2 1 -1 1 1 0 -0 -0 0 0 -0 0 -0 0 0 -0 -0 nan
nan -0 -0 0 0 -0 0 0 -0 -0 -0 -0 0 -1 -0 -0 -0 -0 0 0 0 0 0 1 1 2 2 1 1 1 2 1 -1 -1 -1 -0 1 -0 -0 0 0 -0 0 0 0 0 0 -0 nan
nan -0 0 0 0 -0 0 0 -0 -0 -0 0 -0 -0 -0 -0 -0 -0 0 0 0 0 1 1 2 2 1 1 1 1 1 -0 -0 -1 0 1 -0 -1 0 -0 0 0 0 0 0 0 0 -0 nan
nan 0 -0 -0 -0 0 1 0 -0 -0 -0 -0 0 0 -0 0 0 0 0 0 0 0 1 1 1 1 0 0 1 1 0 -0 -1 -0 -0 -1 -1 1 0 -0 0 -0 -0 -0 0 0 -0 -0 nan
nan 0 0 0 0 0 0 0 -0 -1 -1 -1 -1 -2 -2 -1 -0 0 0 0 0 0 1 1 0 0 0 0 1 1 1 0 -0 0 -2 -1 -1 1 -0 -0 0 -0 -0 0 0 0 -0 -0 nan
nan 0 -0 0 0 0 -0 -0 -0 -0 -0 -1 -2 -2 -1 -2 -2 -1 -0 0 0 1 1 0 0 0 -0 0 1 0 0 0 1 -1 -0 -1 0 1 -1 0 -0 -0 0 0 0 0 -0 -0 nan
nan 0 -0 -0 -0 -0 -0 -0 -0 -1 -1 -1 -1 -1 -2 -1 -0 -0 -1 -0 -0 0 0 0 0 -0 -0 0 0 -0 -1 -1 -1 -0 -1 -1 2 -0 -0 0 0 -0 -0 0 0 0 0 -0 nan
nan -0 0 0 0 -0 -0 0 -0 -0 -0 -0 -0 -0 0 0 -0 -1 -1 -0 -0 -0 0 0 0 -0 -0 0 -0 -0 -1 -1 -1 -0 -0 1 0 -0 0 0 0 -0 -0 -0 0 0 0 0 nan
nan -0 -1 -0 0 0 0 0 -0 -0 0 0 -0 -0 -0 -0 0 -1 -1 -1 -0 -0 -0 0 0 0 -0 0 0 -0 -0 -0 0 -0 0 1 -0 0 0 -0 -0 -0 -0 -0 -0 -0 -0 0 nan
nan nan nan nan nan nan nan nan nan nan nan nan nan nan nan nan nan nan nan nan nan nan nan nan nan nan nan nan nan nan nan nan nan nan nan nan nan nan nan nan nan nan nan nan nan nan nan nan nan
Wind_Speed
7 10 11 7 4 5 3 6 2 3 2 2 1 1 1 2 2 3 5 2 4 4 9 18 21 20 21 20 21 21 20 19 19 19 17 15 14 14 14 14 12 9 8 8 10 10 11 12 13
10 11 11 3 4 3 5 4 5 4 4 4 3 2 3 0 1 5 3 1 3 4 5 15 22 22 19 20 21 21 20 19 18 16 14 16 15 13 12 13 11 9 8 10 11 11 12 13 15
11 14 4 4 3 5 5 4 6 3 3 3 3 1 2 2 4 2 3 3 6 8 4 13 21 24 21 18 20 20 19 18 16 15 15 16 14 13 13 13 11 9 10 10 11 13 14 16 16
8 5 4 3 5 6 5 4 5 5 2 4 4 1 4 3 4 5 3 4 6 8 6 10 20 24 23 22 20 20 18 19 19 18 16 16 15 14 14 13 11 10 10 10 12 15 17 18 16
9 3 3 1 4 5 5 5 9 6 4 6 5 3 6 5 6 5 4 3 6 7 7 10 18 22 25 23 22 20 19 19 20 18 16 16 15 14 14 12 11 11 11 12 14 17 20 20 16
3 3 2 3 5 5 5 8 10 6 5 3 2 3 4 11 8 7 7 6 8 6 7 11 15 21 24 22 23 22 22 23 22 19 15 14 14 14 13 12 12 12 12 13 16 20 22 20 17
6 4 4 3 4 5 5 8 7 9 7 6 5 4 4 11 11 7 6 6 12 12 11 11 15 21 24 23 23 25 25 25 24 19 15 14 14 14 13 13 13 13 13 15 19 22 23 20 17
5 3 3 5 4 6 3 5 4 7 6 3 7 5 4 14 14 8 4 3 5 10 14 15 16 20 26 25 25 25 27 27 26 21 18 14 14 14 13 14 13 13 14 17 21 24 24 22 19
5 3 3 5 7 4 4 3 4 4 4 11 9 10 5 7 12 12 13 13 11 10 13 19 20 22 27 28 29 28 28 30 28 24 21 17 15 15 14 16 15 15 15 20 24 26 25 23 21
5 4 9 7 5 5 5 3 4 3 6 8 16 18 15 15 17 21 20 19 17 17 16 16 22 25 28 30 30 30 30 31 29 28 25 20 17 17 17 17 17 17 18 23 27 25 24 24 22
8 7 5 6 11 4 3 3 7 7 7 20 23 26 21 22 26 28 27 25 23 20 18 18 21 26 29 30 33 32 34 33 32 31 26 22 20 19 20 20 20 19 23 27 29 28 25 23 20
4 13 7 4 7 4 4 3 5 15 25 16 20 21 25 24 26 26 26 25 25 24 22 19 21 25 29 31 34 36 38 37 38 37 30 26 24 23 23 22 21 21 25 30 31 29 25 21 22
4 3 9 22 20 20 18 14 12 14 37 28 31 29 30 30 28 25 26 28 24 25 24 24 24 24 26 31 32 35 37 42 42 39 35 31 28 26 26 24 22 23 27 30 32 30 27 25 24
4 6 9 12 17 12 7 9 7 19 31 22 25 27 25 24 23 21 23 30 34 32 29 27 26 25 26 26 30 29 36 31 40 43 38 34 31 29 28 27 24 26 28 33 32 30 28 26 23
3 5 7 8 10 8 10 7 10 37 25 24 25 23 20 22 21 23 21 24 27 31 34 33 28 29 29 28 26 30 32 24 34 38 40 37 34 31 31 29 27 28 32 35 32 29 25 27 25
1 1 3 3 5 7 11 8 7 14 14 17 17 19 22 23 23 22 25 24 25 28 29 32 33 31 31 30 28 28 32 34 34 34 39 41 36 33 32 31 30 31 35 38 34 30 29 28 26
1 6 7 7 8 4 8 3 6 5 3 9 22 31 29 32 30 30 32 32 28 27 30 29 34 34 35 32 31 32 33 28 27 33 37 38 37 35 33 31 32 35 40 41 37 32 30 28 27
8 6 4 4 2 3 6 13 9 27 15 20 30 34 31 35 38 27 25 29 33 32 30 28 32 34 37 36 36 35 34 29 33 32 36 38 37 36 34 33 33 39 43 42 38 34 31 29 30
5 3 3 1 4 7 9 16 9 17 16 14 28 34 37 37 30 19 19 24 29 34 33 29 31 34 40 39 35 34 35 36 39 40 35 40 38 37 36 33 36 43 45 43 39 34 34 32 34
10 9 13 5 5 4 8 23 11 10 17 23 29 35 31 32 21 17 19 23 28 33 35 32 30 35 40 38 33 31 37 36 45 44 40 38 40 41 37 33 40 46 45 42 39 38 38 36 35
15 14 3 7 5 5 7 18 8 8 16 23 31 29 21 18 17 18 18 21 25 32 34 30 32 35 38 34 29 30 33 27 40 53 45 37 26 42 37 35 44 49 44 42 41 40 40 40 40
16 7 11 8 2 3 1 7 5 7 8 5 8 16 12 8 11 13 13 18 22 28 27 28 31 35 36 35 31 32 37 40 43 57 50 50 30 46 39 38 44 48 45 43 42 42 41 39 43
8 7 8 9 4 2 4 2 8 2 6 6 8 5 4 4 6 7 10 12 17 23 25 26 28 33 34 30 32 36 42 39 45 43 46 36 42 44 43 42 43 45 45 43 43 43 43 40 41
6 3 4 1 3 5 11 8 5 2 3 7 6 5 7 2 2 5 10 14 18 19 21 22 26 31 32 29 29 27 39 42 41 48 50 38 44 46 45 43 41 43 43 44 43 43 43 41 41
6 7 3 6 4 5 1 4 7 10 14 10 7 17 19 14 4 5 10 12 15 16 18 16 21 26 25 24 20 18 31 41 38 46 48 43 50 48 46 44 42 42 41 42 41 43 44 42 40
9 7 5 7 5 3 3 6 3 6 15 26 30 27 33 30 22 11 9 12 14 15 14 14 17 19 24 18 20 20 22 29 39 43 41 49 51 47 46 44 41 41 41 41 40 41 41 41 39
7 7 5 5 3 3 4 3 4 15 20 22 27 33 32 37 29 21 10 9 11 12 13 16 14 18 19 15 14 21 27 24 28 37 38 44 46 47 43 41 40 41 40 40 39 40 39 39 37
5 4 4 4 6 4 2 1 3 13 16 17 19 23 30 38 38 31 19 12 10 10 12 13 14 18 16 16 15 12 15 24 30 26 29 35 43 43 40 40 40 40 38 37 37 39 39 38 37
4 5 4 2 1 5 4 2 5 7 7 12 13 21 25 30 35 36 31 18 11 11 11 11 12 13 15 17 18 17 11 15 28 33 30 31 33 37 38 38 38 38 37 35 35 37 37 37 37
13 7 7 3 2 2 1 3 10 7 9 17 18 23 24 28 31 33 35 26 19 14 9 10 11 13 12 15 19 21 16 16 18 23 29 33 32 32 33 32 33 35 36 35 34 35 34 35 36
Wind_Direction
166 158 154 143 73 65 259 253 247 242 192 182 176 198 165 18 125 200 148 185 51 131 177 190 182 188 184 183 184 181 177 177 174 177 177 171 155 161 168 175 173 167 163 158 149 147 149 144 133
173 162 156 126 97 105 256 243 206 198 176 130 130 38 54 3 63 139 155 190 115 133 169 192 186 188 191 188 186 180 178 176 174 177 180 162 165 170 180 187 183 179 171 161 156 153 154 148 140
167 166 159 106 125 188 206 208 182 164 151 162 135 100 126 124 108 174 164 174 148 155 165 193 191 187 185 185 181 179 179 173 170 172 174 170 171 172 181 194 191 186 174 166 158 155 157 154 150
161 159 77 109 210 248 212 187 181 150 152 172 155 101 117 165 157 157 136 142 148 155 153 185 195 191 187 187 185 183 179 174 179 186 185 174 178 179 192 199 198 186 177 170 160 160 159 157 153
164 126 75 189 249 262 243 230 191 183 182 178 173 184 147 130 155 166 182 166 201 174 163 183 197 197 193 191 190 187 182 181 193 197 195 182 180 195 199 204 199 189 179 172 163 162 160 164 153
115 107 87 224 240 250 264 213 171 175 191 195 226 136 187 165 175 192 197 196 185 218 194 192 198 202 201 202 204 193 188 190 201 204 213 204 204 203 204 203 198 193 184 170 163 163 165 168 154
133 108 207 217 245 293 235 183 165 175 173 218 178 140 180 169 167 153 156 161 185 200 209 198 206 206 206 208 208 197 193 197 204 210 213 218 217 216 212 203 199 195 180 171 165 165 170 167 159
164 104 180 232 199 253 207 155 153 166 212 217 198 202 200 183 185 183 211 222 192 206 211 213 214 215 209 209 212 209 200 202 208 210 215 220 223 220 211 208 197 186 186 171 167 169 169 168 163
152 80 225 235 167 232 160 139 173 179 201 204 210 233 194 199 208 245 254 252 256 238 215 222 218 216 217 214 213 214 211 210 210 211 217 221 223 221 207 209 199 186 185 171 168 169 170 168 163
142 159 219 209 195 187 174 175 189 211 202 228 234 235 230 228 242 255 258 260 259 254 235 220 222 217 220 221 220 219 217 216 215 216 217 221 223 218 211 207 204 193 181 172 167 170 170 169 162
181 210 206 232 205 193 203 218 238 197 235 232 241 263 256 253 250 250 252 254 255 258 244 231 226 223 221 221 221 220 221 217 216 219 220 222 225 217 210 205 200 194 178 172 171 172 173 171 163
189 240 207 234 208 217 196 200 236 221 250 251 267 270 270 267 258 251 249 244 243 246 250 239 229 227 224 226 226 223 220 216 215 218 219 222 225 218 211 208 204 191 180 178 176 176 176 172 166
236 252 232 246 258 268 271 241 243 254 266 265 269 267 266 270 264 257 250 243 238 239 240 245 239 231 230 228 229 228 219 205 212 219 217 218 226 222 214 207 203 186 184 180 178 180 180 175 171
243 249 268 272 263 252 230 255 204 262 270 263 265 264 261 262 261 258 249 245 239 241 237 239 239 231 227 233 231 230 223 223 207 214 220 220 220 222 215 208 200 187 184 180 180 181 180 183 174
281 310 310 222 235 230 222 268 227 264 265 265 262 263 264 266 263 255 252 247 242 239 240 238 233 232 224 222 230 229 223 214 218 200 213 221 220 220 216 207 198 187 183 180 180 181 181 179 176
337 139 279 296 163 244 161 260 271 276 250 245 259 268 273 273 268 264 258 246 242 239 236 236 234 230 228 224 225 230 229 232 234 234 215 212 218 215 214 206 195 186 183 181 180 178 174 179 183
286 246 217 322 206 138 186 260 262 281 253 266 284 285 281 279 273 271 259 248 240 240 235 235 231 230 229 227 224 224 226 231 232 232 235 214 211 212 213 207 192 185 183 182 183 187 185 183 184
200 231 244 223 126 190 230 256 278 287 272 275 283 281 279 281 285 290 266 248 241 236 231 229 228 230 226 226 224 223 226 231 222 225 224 225 208 210 208 205 195 187 185 183 184 190 188 186 182
108 225 242 298 301 339 280 275 254 258 265 247 267 275 278 281 290 280 262 234 232 232 223 223 226 227 225 221 223 229 235 237 223 223 231 232 210 210 205 204 194 189 187 190 187 190 191 188 189
254 265 266 257 242 250 295 283 266 252 256 247 255 267 271 281 273 272 263 235 224 222 221 225 229 229 226 226 229 246 259 249 234 214 214 216 218 212 208 204 200 193 190 194 191 192 190 196 193
234 239 234 245 309 269 291 283 260 254 250 245 250 263 267 266 270 277 265 238 221 217 222 226 231 230 224 223 235 261 254 230 215 212 210 209 225 217 209 208 204 197 195 196 194 195 197 191 189
244 190 228 235 226 227 100 291 323 292 297 255 233 262 265 237 261 272 251 228 215 215 221 229 231 233 224 224 244 257 226 217 214 210 205 218 228 216 209 208 204 201 199 199 198 199 203 200 191
228 159 207 223 211 213 208 309 276 322 330 311 298 225 189 241 256 248 231 223 220 222 230 231 230 231 226 236 248 249 215 206 205 204 195 193 209 211 208 209 204 205 203 203 202 202 207 209 205
213 200 92 46 193 261 207 177 277 311 349 342 354 68 55 87 224 236 234 230 231 235 235 229 235 235 235 241 255 256 214 208 203 209 203 197 205 208 208 211 209 210 207 206 206 208 211 213 215
175 165 181 212 191 224 257 111 249 339 352 320 347 21 19 19 12 242 240 244 239 242 237 235 235 229 238 248 268 236 198 203 209 200 201 206 209 205 208 209 210 211 211 210 209 211 214 217 218
187 184 175 180 186 196 156 210 19 13 38 41 42 30 35 28 21 347 275 250 246 245 240 231 239 243 243 243 241 203 174 183 201 207 203 207 203 205 208 208 212 214 214 213 213 215 217 221 224
171 200 187 105 22 89 198 228 35 17 24 24 28 25 16 19 23 20 348 299 264 251 238 231 246 243 239 242 224 198 183 169 185 188 195 198 203 210 209 210 213 215 216 216 217 219 221 224 227
22 360 164 182 166 199 216 301 89 20 10 10 15 13 7 12 22 22 15 347 299 266 251 238 243 241 242 236 215 200 207 190 182 190 202 211 212 212 212 213 214 216 216 218 220 221 224 226 229
12 24 330 295 79 166 152 222 146 76 18 13 1 359 3 8 13 21 21 9 339 290 263 242 240 239 243 233 231 217 211 203 196 196 199 209 215 218 218 218 218 218 217 217 219 222 225 228 231
72 45 29 339 42 21 138 136 140 72 26 10 357 351 355 4 7 11 20 21 16 352 311 261 233 236 239 234 237 234 224 231 216 207 212 209 212 222 223 222 225 224 222 222 221 223 226 229 233
Height
1497 1499 1501 1502 1513 1518 1520 1510 1499 1496 1495 1492 1491 1492 1493 1493 1495 1506 1495 1496 1496 1497 1497 1500 1503 1506 1509 1511 1513 1515 1517 1519 1522 1524 1527 1529 1532 1533 1535 1535 1535 1536 1537 1538 1539 1540 1541 1542 1543
1497 1499 1501 1501 1518 1525 1517 1500 1496 1492 1491 1491 1491 1492 1494 1495 1494 1494 1495 1495 1496 1497 1498 1500 1502 1505 1508 1510 1513 1516 1518 1520 1523 1525 1527 1530 1532 1534 1535 1536 1537 1537 1538 1539 1540 1541 1542 1542 1544
1497 1499 1500 1505 1520 1519 1510 1493 1493 1491 1490 1491 1492 1493 1494 1495 1495 1494 1495 1495 1496 1497 1499 1500 1502 1505 1508 1511 1513 1516 1519 1521 1524 1526 1528 1530 1532 1533 1535 1536 1537 1538 1539 1540 1541 1541 1542 1543 1544
1498 1500 1503 1509 1512 1503 1496 1489 1489 1491 1492 1491 1491 1493 1494 1493 1494 1495 1495 1495 1496 1497 1499 1500 1502 1505 1508 1510 1514 1516 1520 1522 1525 1527 1529 1530 1531 1533 1534 1536 1537 1538 1539 1541 1542 1542 1543 1544 1546
1497 1498 1509 1510 1506 1497 1491 1488 1489 1490 1491 1491 1491 1492 1493 1493 1494 1494 1495 1495 1496 1498 1499 1500 1502 1505 1507 1510 1513 1516 1519 1522 1524 1527 1528 1529 1530 1532 1534 1536 1537 1539 1540 1541 1542 1543 1544 1545 1547
1496 1498 1512 1512 1504 1493 1486 1485 1486 1488 1489 1489 1489 1490 1491 1492 1492 1493 1494 1494 1496 1497 1499 1500 1502 1505 1507 1509 1512 1515 1518 1521 1524 1526 1527 1529 1530 1531 1534 1536 1538 1539 1540 1542 1543 1545 1545 1546 1549
1495 1501 1506 1503 1500 1493 1484 1482 1484 1485 1487 1488 1488 1490 1491 1491 1491 1492 1493 1494 1495 1496 1498 1500 1502 1504 1507 1508 1510 1513 1516 1518 1522 1524 1526 1528 1529 1531 1534 1536 1538 1539 1541 1542 1544 1546 1547 1549 1551
1493 1496 1501 1499 1498 1490 1481 1481 1482 1483 1485 1486 1487 1487 1489 1489 1490 1491 1492 1493 1494 1495 1497 1498 1501 1503 1505 1507 1511 1513 1515 1516 1520 1522 1525 1527 1528 1530 1533 1535 1537 1539 1541 1543 1545 1546 1548 1550 1552
1492 1501 1504 1492 1494 1482 1479 1481 1482 1483 1483 1484 1484 1483 1485 1486 1488 1489 1490 1491 1492 1493 1495 1496 1498 1501 1504 1506 1509 1512 1514 1516 1518 1521 1523 1525 1527 1529 1531 1534 1535 1539 1541 1544 1546 1547 1549 1552 1555
1490 1501 1489 1479 1478 1477 1478 1480 1480 1482 1482 1481 1481 1481 1483 1484 1484 1485 1485 1486 1488 1489 1491 1493 1495 1497 1500 1504 1507 1510 1512 1515 1518 1519 1522 1524 1526 1527 1530 1532 1535 1537 1541 1544 1547 1548 1551 1553 1555
1484 1486 1477 1473 1473 1474 1476 1477 1477 1478 1480 1475 1475 1475 1479 1479 1480 1481 1481 1482 1483 1485 1486 1489 1491 1493 1496 1499 1503 1506 1508 1511 1515 1517 1521 1524 1526 1526 1528 1530 1533 1536 1540 1543 1546 1549 1552 1555 1557
1482 1473 1473 1470 1471 1473 1474 1473 1472 1472 1465 1468 1470 1472 1472 1473 1474 1474 1474 1476 1478 1479 1481 1484 1487 1489 1492 1495 1497 1500 1502 1506 1510 1513 1518 1522 1524 1525 1526 1528 1531 1535 1539 1543 1546 1550 1553 1556 1559
1476 1471 1469 1468 1469 1469 1470 1468 1469 1464 1458 1464 1464 1465 1464 1465 1465 1467 1467 1469 1472 1473 1476 1478 1481 1485 1488 1491 1493 1496 1499 1498 1505 1510 1513 1516 1521 1523 1525 1527 1529 1533 1538 1543 1547 1550 1554 1557 1560
1469 1469 1467 1466 1466 1466 1466 1462 1465 1455 1452 1456 1456 1456 1457 1458 1459 1460 1461 1460 1464 1467 1470 1473 1476 1480 1483 1486 1489 1492 1495 1497 1500 1505 1511 1511 1516 1521 1522 1526 1528 1531 1536 1542 1548 1552 1555 1558 1561
1468 1469 1465 1461 1459 1460 1461 1460 1456 1445 1448 1449 1448 1449 1451 1451 1453 1453 1455 1455 1456 1459 1463 1465 1470 1475 1478 1482 1485 1488 1492 1494 1496 1493 1506 1508 1513 1518 1521 1522 1527 1530 1534 1539 1547 1551 1556 1559 1562
1469 1470 1471 1453 1453 1455 1457 1451 1444 1443 1443 1443 1443 1444 1445 1445 1446 1448 1449 1450 1452 1454 1456 1460 1464 1468 1473 1477 1481 1484 1487 1490 1493 1495 1500 1503 1508 1514 1519 1520 1523 1528 1533 1536 1545 1550 1554 1559 1563
1472 1471 1471 1459 1450 1451 1455 1450 1441 1443 1443 1442 1441 1438 1439 1438 1440 1441 1441 1442 1445 1447 1450 1453 1457 1461 1467 1471 1475 1479 1481 1484 1486 1487 1492 1498 1503 1510 1516 1519 1520 1526 1531 1534 1541 1549 1554 1558 1562
1465 1472 1467 1460 1451 1452 1451 1446 1444 1441 1441 1439 1436 1431 1431 1430 1428 1429 1429 1432 1437 1440 1444 1448 1451 1456 1461 1465 1468 1472 1476 1479 1482 1484 1484 1492 1500 1504 1512 1514 1519 1524 1530 1533 1539 1547 1552 1558 1561
1455 1459 1458 1457 1452 1454 1449 1440 1440 1438 1434 1433 1429 1425 1424 1422 1422 1422 1420 1422 1427 1432 1437 1442 1445 1449 1453 1457 1461 1466 1469 1473 1476 1479 1479 1483 1494 1502 1506 1510 1516 1524 1524 1532 1536 1544 1551 1554 1558
1456 1459 1458 1457 1452 1454 1451 1431 1434 1431 1425 1425 1422 1416 1417 1417 1416 1416 1415 1416 1419 1425 1431 1437 1440 1442 1447 1450 1454 1457 1459 1462 1468 1474 1474 1479 1488 1499 1502 1505 1515 1521 1521 1529 1532 1539 1545 1550 1555
1452 1455 1458 1459 1453 1450 1450 1424 1422 1415 1412 1411 1410 1411 1412 1411 1411 1410 1409 1411 1415 1421 1427 1432 1434 1436 1441 1446 1448 1448 1447 1454 1459 1463 1468 1474 1481 1493 1497 1502 1513 1517 1518 1523 1528 1534 1540 1545 1551
1449 1448 1451 1454 1458 1466 1450 1447 1427 1414 1411 1407 1407 1407 1406 1407 1408 1407 1407 1409 1413 1419 1424 1427 1429 1431 1436 1439 1439 1437 1437 1440 1448 1449 1459 1462 1478 1490 1493 1500 1508 1512 1516 1519 1524 1530 1538 1542 1546
1439 1440 1446 1448 1454 1453 1449 1461 1430 1418 1411 1409 1403 1403 1404 1405 1405 1405 1407 1410 1414 1418 1421 1423 1426 1428 1431 1433 1432 1427 1424 1433 1440 1447 1454 1461 1476 1484 1490 1498 1503 1509 1512 1516 1521 1526 1532 1539 1543
1435 1437 1443 1454 1450 1457 1447 1449 1440 1423 1416 1413 1409 1406 1406 1406 1406 1407 1408 1411 1414 1416 1418 1422 1423 1423 1427 1427 1425 1421 1423 1427 1434 1443 1452 1458 1470 1477 1485 1494 1500 1506 1509 1513 1518 1524 1529 1535 1539
1434 1438 1445 1445 1445 1448 1461 1453 1434 1425 1424 1418 1417 1414 1412 1411 1409 1408 1409 1410 1412 1414 1417 1419 1419 1420 1424 1423 1421 1418 1420 1423 1431 1438 1446 1451 1463 1471 1479 1487 1494 1499 1504 1510 1515 1520 1526 1530 1534
1429 1428 1438 1445 1448 1445 1446 1444 1436 1441 1433 1422 1419 1420 1414 1413 1413 1411 1411 1410 1411 1413 1414 1417 1417 1419 1419 1420 1418 1419 1421 1424 1430 1437 1445 1450 1460 1469 1477 1484 1490 1497 1502 1507 1512 1518 1523 1527 1532
1420 1420 1418 1435 1440 1454 1441 1430 1434 1435 1430 1427 1425 1423 1422 1419 1416 1415 1413 1413 1413 1413 1415 1416 1417 1417 1418 1420 1421 1421 1425 1427 1431 1438 1447 1454 1462 1469 1476 1481 1487 1493 1499 1505 1510 1514 1519 1523 1527
1427 1431 1421 1422 1435 1436 1434 1427 1456 1447 1444 1435 1431 1432 1428 1424 1419 1416 1415 1413 1413 1413 1414 1416 1417 1416 1419 1420 1421 1422 1424 1428 1433 1440 1447 1456 1464 1468 1473 1479 1484 1490 1496 1501 1507 1510 1515 1519 1523
1437 1442 1440 1431 1427 1428 1443 1449 1451 1452 1452 1446 1441 1438 1435 1431 1425 1422 1419 1416 1414 1413 1414 1414 1416 1417 1418 1421 1422 1423 1425 1428 1435 1442 1448 1455 1461 1465 1470 1477 1481 1486 1492 1497 1501 1505 1510 1515 1517
1448 1454 1454 1443 1438 1447 1446 1445 1446 1449 1448 1447 1444 1440 1437 1433 1428 1425 1422 1419 1415 1414 1414 1414 1415 1416 1418 1419 1421 1423 1425 1429 1434 1438 1444 1449 1455 1463 1468 1472 1478 1483 1488 1492 1496 1500 1504 1509 1513